Regional Weather Roundup
Issued by NWS Wilmington, NC

Home | Current Version | Previous Version | Text Only | Print | Product List | Glossary On
Versions: 1 2 3 4 5 6 7 8 9 10 11 12 13 14 15 16 17 18 19 20 21 22 23 24 25 26 27 28 29 30 31 32 33 34 35 36 37 38 39 40 41 42 43 44 45 46 47 48 49 50
000
ASUS42 KILM 210513
RWRILM
RWRILM
REGIONAL HOURLY WEATHER ROUNDUP
NATIONAL WEATHER SERVICE WILMINGTON NC
100 AM EDT SAT OCT 21 2017

NOTE: "FAIR" INDICATES FEW OR NO CLOUDS BELOW 12,000 FEET WITH NO
SIGNIFICANT WEATHER AND/OR OBSTRUCTIONS TO VISIBILITY.

...............WFO WILMINGTON COUNTY WARNING AREA...............

......COASTAL NC AND SC COUNTIES......

CITY           SKY/WX    TMP DP  RH WIND       PRES   REMARKS
WILMINGTON     CLEAR     56  54  93 CALM      30.25S
N MYRTLE BEACH CLEAR     55  55 100 CALM      30.24S
MYRTLE BEACH   CLEAR     58  56  93 CALM      30.25F

......INLAND NC AND SC COUNTIES.......

CITY           SKY/WX    TMP DP  RH WIND       PRES   REMARKS
LUMBERTON      CLEAR     51  51 100 CALM      30.24S
ELIZABETHTOWN  NOT AVBL
WHITEVILLE     CLEAR     56  55  95 CALM      30.24S
FLORENCE       CLEAR     54  51  90 CALM      30.25S
DARLINGTON     CLEAR     51  50  96 CALM      30.25S
KINGSTREE      FAIR      52  50  93 CALM      30.24S
HARTSVILLE     FAIR      52  50  93 CALM      30.24S
BENNETTSVILLE  FAIR      52  52 100 CALM      30.24S
CONWAY         FAIR      52  52 100 CALM      30.25S
GEORGETOWN     FAIR      52  52 100 CALM      30.25S
MARION         FAIR      52  52 100 CALM      30.25S

....................REST OF NORTH CAROLINA......................

.........EASTERN NC.........

CITY           SKY/WX    TMP DP  RH WIND       PRES   REMARKS
CAPE HATTERAS  CLEAR     60  59  96 NE3       30.25S
JACKSONVILLE   CLEAR     50  50 100 CALM      30.26R
MOREHEAD CITY  CLEAR     56  56 100 CALM      30.25S
KENANSVILLE    CLEAR     50  48  93 CALM      30.26S
NEW BERN       CLEAR     55  55 100 CALM      30.27R
ELIZABETH CITY CLEAR     57  57 100 CALM      30.26R

.........CENTRAL NC.........

CITY           SKY/WX    TMP DP  RH WIND       PRES   REMARKS
RALEIGH DURHAM CLEAR     53  53 100 CALM      30.27R
ROCKY MOUNT    CLEAR     51  51 100 CALM      30.26S FOG
ROANOKE RAPIDS NOT AVBL
FAYETTEVILLE   CLEAR     56  53  90 CALM      30.25R
HOFFMAN        CLEAR     49  48  94 CALM      30.25S

.........WESTERN NC.........

CITY           SKY/WX    TMP DP  RH WIND       PRES   REMARKS
CHARLOTTE      CLEAR     54  51  90 N3        30.26S
GREENSBORO     CLEAR     55  51  86 CALM      30.26F
HICKORY        NOT AVBL
BOONE          NOT AVBL
ASHEVILLE      NOT AVBL

.....................REST OF SOUTH CAROLINA.....................

.........EASTERN SC.........

CITY           SKY/WX    TMP DP  RH WIND       PRES   REMARKS
CHARLESTON     CLEAR     58  58 100 CALM      30.23F
BEAUFORT MCAS  CLEAR     63  62  97 MISG      30.22F
HILTON HEAD    CLEAR     63  61  94 NE3       30.23S

.........CENTRAL SC.........

CITY           SKY/WX    TMP DP  RH WIND       PRES   REMARKS
COLUMBIA       CLEAR     53  51  93 CALM      30.23F
ORANGEBURG     PTCLDY    53  50  89 CALM      30.24S
SUMTER SHAW    CLEAR     55  49  82 CALM      30.22S

.........WESTERN SC.........

CITY           SKY/WX    TMP DP  RH WIND       PRES   REMARKS
GREENVILLE     NOT AVBL
ROCK HILL      CLEAR     50  50 100 CALM      30.25F
ANDERSON       CLEAR     53  50  89 CALM      30.24F
CLEMSON        NOT AVBL
GREENWOOD      CLEAR     50  49  96 CALM      30.26S


...................COASTAL AND OFFSHORE REPORTS..................

................LOCAL PIERS AND NC RESERVE................


STATION/POSITION TIME  SKY/WX   TEMP    WIND        PRES    VSBY
                                AIR SEA DIR/SP/G
                 (UTC)          (F)     (DEG/KT/KT) (MB)    (MI)
JOHNY MRCER PIER 0436            66 75  270/  5/  6 1024.5R
NC RESRV MASNBRO 0345            60     320/  2     1024.0
OCEAN CREST PIER NOT AVBL
SPRINGMAID  PIER 0436                               1023.3F


................COASTAL AND OFFSHORE BUOYS................


STATION/POSITION TIME  SKY/WX   TEMP    WIND        PRES    VSBY
                                AIR SEA DIR/SP/G
                 (UTC)          (F)     (DEG/KT/KT) (MB)    (MI)
DIMNDSHOAL 41025 0450            72 81   10/  8/ 10 1024.0S
WVE H/P(F/S)=  3/ 8 SWL H/P/D(F/S/D)=  3/100/ 8

CAPE LOOKOUT     0500            69        CALM     1024.0R
ONSLOW BAY 41036 NOT AVBL
ONSLOW BAY 41064 0408            74     110/  4/  8 1023.8R
ONSLOW BAY 41159 NOT AVBL
MASNBO INL 41110 0459               74                N/A
WVE H/P(F/S)=  2/ 9

WILM HARBR 41108 0500               74                N/A
WVE H/P(F/S)=  2/ 9

27SE WRITB 41037 0408            73 76  140/  4/  6 1024.1R
FRYING PAN 41013 0500            73 76   CALM  /  2 1023.7
SUNST NRSH 41024 0408            72 73  210/  4/  4 1024.0R
CAPRS NRSH 41029 0408            71 73  130/  6/ 10 1023.5R
EDISTO     41004 0450            75 80  110/  4/  8 1022.9F
WVE H/P(F/S)=  3/ 9 SWL H/P/D(F/S/D)=  3/100/ 9



..........OFFSHORE BUOYS BEYOND 100 NM OFFSHORE...........
.....IN A TRIANGLE---HAT TO BERMUDA TO BAHAMAS TO HAT.....


STATION/POSITION TIME  SKY/WX   TEMP    WIND        PRES    VSBY
                                AIR SEA DIR/SP/G
                 (UTC)          (F)     (DEG/KT/KT) (MB)    (MI)
150E HAT   41001 NOT AVBL
W BERMUDA  41048 0500            77 79   40/  8/ 12 1022.0
ATLANTIC S 41049 0450            79 81  280/  6/  6 1019.5R
WVE H/P(F/S)=  5/ 8 SWL H/P/D(F/S/D)=  5/120/ 8

E BAHAMAS  41046 0500            81 82  100/ 14/ 16 1018.0
NE BAHAMAS 41047 0500            75 82   80/ 10/ 12 1019.0
120E CANVRL41010 NOT AVBL

END



USA.gov is the U.S. government's official web portal to all federal, state and local government web resources and services.